1491754479.47, 0.399301724766, -0.975012211898, 0.406386716785, 0.145063366693, 0.167112570683, -0.693153635522, 0.685979625008
1491754479.48, 0.399431858864, -0.975494648686, 0.406143887983, 0.144928307134, 0.166988364129, -0.693553556343, 0.685634112717
1491754479.49, 0.399565001162, -0.975992111359, 0.405905335577, 0.144775158056, 0.166729400686, -0.693939179388, 0.685339241447
1491754479.5, 0.399690176842, -0.976521033264, 0.405651655365, 0.144649189173, 0.166408056705, -0.694297062638, 0.685081425487
1491754479.51, 0.399844304678, -0.977101740922, 0.405399228433, 0.144549646978, 0.166093020085, -0.694663723317, 0.684807140548
1491754479.52, 0.399980131132, -0.977706588773, 0.405109692278, 0.144500905489, 0.165800241515, -0.69496691337, 0.684580716605
1491754479.53, 0.400100346492, -0.978318027985, 0.40481055649, 0.144574235961, 0.165552324332, -0.695203277954, 0.684385213551
1491754479.54, 0.400223384831, -0.978949687121, 0.404519414802, 0.144751205064, 0.16531576034, -0.695448872584, 0.684155430905
1491754479.55, 0.400317105134, -0.979562237168, 0.404214028703, 0.145048635798, 0.165099839741, -0.695631154629, 0.683959233347
1491754479.56, 0.400408192956, -0.980179356338, 0.403906775469, 0.145376778679, 0.164804589721, -0.695813844089, 0.683774914575
1491754479.57, 0.400494239846, -0.980803959444, 0.403597634129, 0.14564775116, 0.164457608816, -0.695977272267, 0.683634452009
1491754479.58, 0.400603078558, -0.981476467561, 0.403292165945, 0.145902760334, 0.16403990755, -0.696189922003, 0.683463887678
1491754479.59, 0.400703184932, -0.982160208234, 0.402962104394, 0.146084443362, 0.163701238694, -0.696320256387, 0.683373499927
1491754479.6, 0.400820161916, -0.982874261393, 0.402648672609, 0.146237030599, 0.163380541588, -0.696413649868, 0.683322440572
1491754479.61, 0.400942697046, -0.983592272946, 0.402325781404, 0.146371596839, 0.163223872786, -0.696395978077, 0.683349079687
1491754479.62, 0.401051250787, -0.984317896017, 0.401981345174, 0.146481261045, 0.163215771037, -0.696302176825, 0.683423097939
1491754479.63, 0.401161024866, -0.985063498574, 0.401623163913, 0.146565965834, 0.163274449468, -0.696185491924, 0.683509789722
1491754479.64, 0.401236853642, -0.985788260933, 0.401234828858, 0.146618034295, 0.163441636589, -0.696040706631, 0.683606113314
1491754479.65, 0.401313883913, -0.986520081943, 0.400867814675, 0.146655484202, 0.163647526963, -0.695905972691, 0.68368599009
1491754479.66, 0.401372649484, -0.987278386754, 0.400501471176, 0.146696498758, 0.163904294019, -0.695784074689, 0.683739746588
1491754479.67, 0.401405168855, -0.988052907163, 0.400128073061, 0.146784606653, 0.164251107773, -0.695606633654, 0.68381815131
1491754479.68, 0.401434300675, -0.988854876808, 0.399758842895, 0.146822559696, 0.164633459499, -0.695399946848, 0.683928266634
1491754479.69, 0.401475749949, -0.989716576751, 0.399426935444, 0.146810766675, 0.165020315531, -0.695161050565, 0.684080410498
1491754479.7, 0.401494048501, -0.990573308716, 0.399103876445, 0.146759464806, 0.165324911019, -0.694929589547, 0.684253022542
1491754479.71, 0.401511350615, -0.991470187656, 0.398785985063, 0.146655451287, 0.165602584449, -0.694724853393, 0.684416058191
1491754479.72, 0.401502083138, -0.992400188269, 0.39847692707, 0.146612176713, 0.165873623787, -0.694506803657, 0.684580974206
1491754479.73, 0.40144886292, -0.993330664982, 0.398165580781, 0.146652800491, 0.166091080276, -0.694312195712, 0.684716937169
1491754479.74, 0.401367167638, -0.994288791216, 0.397871356882, 0.14681461698, 0.166295052312, -0.694132169338, 0.684815270936
1491754479.75, 0.40127963382, -0.995312833728, 0.397617830999, 0.147036129324, 0.166448130015, -0.693952183411, 0.684912960767
1491754479.76, 0.40115735378, -0.996327170792, 0.397392212995, 0.147167381833, 0.166414134039, -0.693863004909, 0.684983377999
1491754479.77, 0.401030729796, -0.997432470573, 0.397203031285, 0.147282661364, 0.166306904822, -0.69382239803, 0.685025774013
1491754479.78, 0.400871840851, -0.99856222621, 0.397007307977, 0.147354079153, 0.166155109077, -0.693890942951, 0.684977820353
1491754479.79, 0.400697257762, -0.999727993261, 0.396837466668, 0.147390749096, 0.165998977605, -0.69400632589, 0.684890886302
1491754479.8, 0.400507458454, -1.00092103477, 0.396714095406, 0.147374036026, 0.165855656161, -0.694152220482, 0.68478134439
1491754479.81, 0.400317963779, -1.00211895702, 0.396621810235, 0.147238889945, 0.165658347546, -0.694328548161, 0.684679405551
1491754479.82, 0.400139119246, -1.00336767201, 0.396548095396, 0.147015985406, 0.165465978734, -0.694506297754, 0.684593538019
1491754479.83, 0.399960684915, -1.00463226576, 0.396482759097, 0.14678894209, 0.16530147426, -0.69470777016, 0.684477569514
1491754479.84, 0.399761857854, -1.00587920131, 0.396450948339, 0.146525743123, 0.165127652834, -0.6949121374, 0.684368457898
1491754479.85, 0.39954508177, -1.00718096592, 0.396430241142, 0.146156986078, 0.1648657183, -0.695186593872, 0.684231707867
1491754479.86, 0.399304831797, -1.00845405476, 0.396379017302, 0.14577762535, 0.164662454124, -0.695488735209, 0.684054514894
1491754479.87, 0.39908914882, -1.00977940383, 0.396305554004, 0.145454747083, 0.164576580664, -0.69574227827, 0.68388606352
1491754479.88, 0.398868533814, -1.01116491354, 0.396216975201, 0.145110817133, 0.164523727571, -0.696014362135, 0.683694962332
1491754479.89, 0.398669046216, -1.01252725377, 0.396110733036, 0.14468123094, 0.16444349637, -0.696335993748, 0.683477769738
1491754479.9, 0.398481387807, -1.01393736327, 0.395966242774, 0.144295032167, 0.164446684233, -0.696683298291, 0.683204664518
1491754479.91, 0.398293630212, -1.01532847219, 0.395775693673, 0.143992372664, 0.164550059207, -0.697011884954, 0.682908417624
1491754479.92, 0.398108499018, -1.01677450193, 0.395536251542, 0.143685122947, 0.164748666381, -0.697299612439, 0.682631461963
1491754479.93, 0.397957134367, -1.01821575899, 0.39525108724, 0.143327351512, 0.164996262284, -0.69752749841, 0.682414018541
1491754479.94, 0.397811030353, -1.01972266864, 0.394936988936, 0.143015414776, 0.165286339111, -0.697760521318, 0.682170999185
1491754479.95, 0.397652545034, -1.02118805536, 0.394576682694, 0.142812945284, 0.165556319961, -0.697955459819, 0.681948490495
1491754479.96, 0.397493208674, -1.02270899826, 0.394184187716, 0.142545372202, 0.165814119048, -0.698151284395, 0.681741357764
1491754479.97, 0.397376786554, -1.02418138869, 0.393771253604, 0.142352525832, 0.165962266352, -0.698216751627, 0.681678554954
1491754479.98, 0.39727580566, -1.02576780704, 0.393325501488, 0.142228348336, 0.16608924216, -0.69828843097, 0.68160012305
1491754479.99, 0.39718445104, -1.02734046444, 0.392899564821, 0.142209320559, 0.165907953945, -0.698371794893, 0.681562833539
1491754480.0, 0.39709466521, -1.02897400707, 0.392461364592, 0.142210503541, 0.165510528376, -0.698483898395, 0.681544335581
1491754480.01, 0.396995151797, -1.03067192712, 0.39198257254, 0.142375422469, 0.165042055014, -0.698541087494, 0.681564896569
1491754480.02, 0.396916123811, -1.03229803952, 0.39149667352, 0.142549872203, 0.164480210697, -0.698492805559, 0.681713719098
1491754480.03, 0.396867135027, -1.03403264439, 0.390975477208, 0.142698193494, 0.163806314354, -0.698501724623, 0.681835799625
1491754480.04, 0.39678145241, -1.03578122244, 0.390409315829, 0.142982292313, 0.163218409711, -0.698517022177, 0.681901594474
1491754480.05, 0.396694960476, -1.03747603298, 0.389787039742, 0.143303335539, 0.162703292604, -0.698483683805, 0.681991448669
1491754480.06, 0.396657743359, -1.03916790012, 0.389101782446, 0.143632011221, 0.162188034626, -0.698389437187, 0.682141540153
1491754480.07, 0.396646084264, -1.04090824488, 0.388344533655, 0.144190847576, 0.16180143108, -0.698253147391, 0.682254965929
1491754480.08, 0.396632384081, -1.04263900049, 0.387576516551, 0.144863561376, 0.161545304048, -0.698129697077, 0.682299486578
1491754480.09, 0.396672589616, -1.04438689228, 0.386795349468, 0.145461541989, 0.161280197258, -0.697910472048, 0.68245923745
1491754480.1, 0.396713629974, -1.04617528789, 0.386002079715, 0.146015659527, 0.161047451621, -0.6976460921, 0.682666152433
1491754480.11, 0.396709463753, -1.04798957126, 0.38519826342, 0.146517008962, 0.160757019095, -0.697424870796, 0.682853202739
1491754480.12, 0.396702589326, -1.04976756056, 0.384392746608, 0.146973787388, 0.160428392427, -0.697276589168, 0.682983744259
1491754480.13, 0.396692656039, -1.05153667998, 0.383562794673, 0.147486297114, 0.160161923759, -0.697127704485, 0.683087779119
1491754480.14, 0.396684470473, -1.05331803969, 0.382740270493, 0.148001146974, 0.15990050388, -0.697007939473, 0.683159880017
1491754480.15, 0.39670731225, -1.05515661133, 0.381931358397, 0.14858492898, 0.159689592104, -0.696923658136, 0.683168476866
1491754480.16, 0.396745392578, -1.05696960194, 0.381122585203, 0.149231923556, 0.15979255038, -0.696845384915, 0.683083218472
1491754480.17, 0.396784156407, -1.05879664294, 0.380283113193, 0.149916619582, 0.160030955972, -0.696747121913, 0.68297770711
1491754480.18, 0.396806090374, -1.06060779775, 0.379422495207, 0.150577520172, 0.160384826419, -0.696600601675, 0.682898762351
1491754480.19, 0.396832046666, -1.06247746021, 0.378564134546, 0.15124974091, 0.160866599418, -0.696459193248, 0.682781110756
1491754480.2, 0.396899294418, -1.06445604665, 0.377726564918, 0.151876499628, 0.161438087251, -0.696267283565, 0.682702821645
1491754480.21, 0.396953664035, -1.06628363634, 0.376980221346, 0.15222386496, 0.162116259037, -0.696017392114, 0.682719564219
1491754480.22, 0.397037429373, -1.06816729381, 0.376294838069, 0.152427884042, 0.162845772788, -0.695738440233, 0.682784751758
1491754480.23, 0.397152798928, -1.07022049244, 0.37568527299, 0.152593137431, 0.163604045427, -0.695392974143, 0.682918488724
1491754480.24, 0.397241717113, -1.07219322717, 0.37515015898, 0.152526202439, 0.164207897814, -0.695109414769, 0.683077173799
1491754480.25, 0.397333933055, -1.07420929198, 0.374643775878, 0.152352808732, 0.164740657889, -0.694785324759, 0.683317268777
1491754480.26, 0.397389879832, -1.07620216027, 0.374151163402, 0.152098396192, 0.165177618589, -0.694455019996, 0.683604167188
1491754480.27, 0.397447233245, -1.07822831179, 0.373676594064, 0.151877185193, 0.165517774063, -0.694211844663, 0.683818032679
1491754480.28, 0.397495226284, -1.08023779866, 0.373223252519, 0.151528095045, 0.165652781537, -0.694039303199, 0.684037892222
1491754480.29, 0.397514959464, -1.08211503815, 0.372774653269, 0.15123551071, 0.165650308153, -0.693942503671, 0.684201430361
1491754480.3, 0.397521370471, -1.08416128405, 0.372286187365, 0.151095323204, 0.165684792005, -0.693888496367, 0.684278823006
1491754480.31, 0.397534144688, -1.0861048553, 0.371797287131, 0.151005188575, 0.165648903582, -0.693973354383, 0.684221351006
1491754480.32, 0.39750559121, -1.08806959996, 0.371304169636, 0.151049510262, 0.165665085587, -0.693985207248, 0.684195627718
1491754480.33, 0.397471726355, -1.0900100159, 0.370813797305, 0.151257214967, 0.165781013078, -0.69396588025, 0.68414126295
1491754480.34, 0.397464266144, -1.092096105, 0.37027676958, 0.151477653057, 0.165852436331, -0.693951377695, 0.684089888379
1491754480.35, 0.397162680669, -1.09400820116, 0.369971376133, 0.151146140395, 0.165588329797, -0.694215935079, 0.683958759547
1491754480.36, 0.397210950038, -1.09610669891, 0.369305113963, 0.151527967896, 0.165702734127, -0.694120029381, 0.683943903884
1491754480.37, 0.397208090093, -1.09811903114, 0.368762482765, 0.151851774967, 0.16571317837, -0.694127401786, 0.683862070189
1491754480.38, 0.397188986691, -1.10029289359, 0.368217189527, 0.152098186647, 0.165645659843, -0.694221683674, 0.68372795095
1491754480.39, 0.397122073452, -1.10230999628, 0.367713411492, 0.152238773192, 0.165556492063, -0.694289488936, 0.683649405343
1491754480.4, 0.39706904463, -1.10432145656, 0.367215831819, 0.152442070207, 0.165553729627, -0.694380464169, 0.683512361862
1491754480.41, 0.397026088197, -1.10642470058, 0.366694901284, 0.152675816065, 0.165511180621, -0.694503965562, 0.683344997857
1491754480.42, 0.396956368883, -1.10847267085, 0.36617461042, 0.152879935589, 0.165399309608, -0.694606265282, 0.683222460042
1491754480.43, 0.396857453457, -1.11051311835, 0.36561459497, 0.153261364697, 0.165339183763, -0.694680612286, 0.683075951354
1491754480.44, 0.396751152022, -1.11263362443, 0.365046007765, 0.153673236308, 0.165265571365, -0.694825381673, 0.682853949499
1491754480.45, 0.396658390719, -1.1146912212, 0.36450160393, 0.154086822667, 0.165248798993, -0.694954879649, 0.682632991266
1491754480.46, 0.396575051072, -1.11670833957, 0.363938918436, 0.154354009243, 0.165203997975, -0.695089146457, 0.682446743241
1491754480.47, 0.396453424149, -1.11886939786, 0.363376660453, 0.154649182672, 0.165127820282, -0.695301004131, 0.682182487991
1491754480.48, 0.396356218372, -1.12095769444, 0.362859133572, 0.154944689602, 0.165182285773, -0.695507389189, 0.681891800226
1491754480.49, 0.396264313154, -1.12316854208, 0.362362661438, 0.155180480105, 0.165245558644, -0.695650174597, 0.681677165912
1491754480.5, 0.396141251186, -1.1252842306, 0.361913238388, 0.155297357207, 0.16526400694, -0.695814595996, 0.681478236522
1491754480.51, 0.396041916497, -1.12752207522, 0.361463296337, 0.15534921498, 0.165287455761, -0.696032223604, 0.681238447298
1491754480.52, 0.395966521894, -1.12966319362, 0.361042317269, 0.155354402283, 0.16540889137, -0.69614752639, 0.681089957237
1491754480.53, 0.395888079697, -1.13171686539, 0.360648761517, 0.155275842109, 0.165479652628, -0.69631391589, 0.680920573901
1491754480.54, 0.395823584638, -1.13384646385, 0.360238463039, 0.155060447306, 0.165528816664, -0.696603621572, 0.680661342334
1491754480.55, 0.395770602952, -1.13593970425, 0.359835014079, 0.155089338525, 0.165755282786, -0.696800767203, 0.680397805794
1491754480.56, 0.395730109022, -1.13780328146, 0.359492619683, 0.155142872209, 0.16606257824, -0.696934031828, 0.680174142842
1491754480.57, 0.395694892163, -1.13978891889, 0.359125948892, 0.155068383931, 0.166328831944, -0.69714499753, 0.679909823717
1491754480.58, 0.395679669952, -1.14191550237, 0.358761979361, 0.155080418361, 0.166699527935, -0.697319894874, 0.679636884991
1491754480.59, 0.395718630501, -1.14378247126, 0.358479190912, 0.154967862452, 0.167069029566, -0.697352846191, 0.679538011355
1491754480.6, 0.395780145243, -1.14571669297, 0.358194547383, 0.154745685502, 0.167430186521, -0.697392829685, 0.679458715864
1491754480.61, 0.395813002544, -1.14771351466, 0.357918196665, 0.154369365295, 0.167750414302, -0.697448942159, 0.679407735194
1491754480.62, 0.3958757687, -1.1495840102, 0.357714318755, 0.153942513626, 0.168024844137, -0.697414160536, 0.679472474009
1491754480.63, 0.395938154633, -1.15149736492, 0.357496313827, 0.153435949717, 0.168323765768, -0.697341234663, 0.679587905756
1491754480.64, 0.395988806904, -1.15338048264, 0.357293942784, 0.152888687963, 0.168521191193, -0.697302072538, 0.679702491423
1491754480.65, 0.396075726363, -1.15532418205, 0.357093847103, 0.152218005429, 0.168625774039, -0.697280606218, 0.679849088655
1491754480.66, 0.396180622836, -1.15697417748, 0.356968082741, 0.151668722608, 0.168589983317, -0.697250736166, 0.680011343305
1491754480.67, 0.396260024532, -1.15879143083, 0.356775407036, 0.151270612291, 0.168602745237, -0.697295349412, 0.680051109729
1491754480.68, 0.396345046339, -1.160570129, 0.356591387888, 0.150875891248, 0.168399904786, -0.697464982172, 0.680015099945
1491754480.69, 0.396460572896, -1.16222236559, 0.35642225891, 0.150649851006, 0.168038645498, -0.69772087904, 0.679892058317
1491754480.7, 0.396595355679, -1.16391046712, 0.356241326394, 0.150696273998, 0.167689140283, -0.697985161099, 0.679696770715
1491754480.71, 0.396719367783, -1.16552684262, 0.356052933953, 0.150925213336, 0.167368028282, -0.698300402265, 0.679401259408
1491754480.72, 0.396878278181, -1.16713532493, 0.355850113948, 0.15104376814, 0.166886557854, -0.69863637645, 0.679147900251
1491754480.73, 0.397063136397, -1.16876663358, 0.355632789474, 0.151211747559, 0.166468675687, -0.698917833253, 0.678923449129
1491754480.74, 0.397279649486, -1.17043376353, 0.355400195949, 0.151454545604, 0.1661667929, -0.69907456764, 0.678781899017
1491754480.75, 0.397509734543, -1.17205461093, 0.355187012638, 0.151671022124, 0.16597198514, -0.69915600651, 0.678697340321
1491754480.76, 0.397747650142, -1.17367458149, 0.35495630358, 0.151824031128, 0.165821523259, -0.699129861717, 0.678726839349
1491754480.77, 0.397997065903, -1.17523830116, 0.354714759612, 0.151955978103, 0.165804346716, -0.699018281171, 0.67881642726
1491754480.78, 0.398245639212, -1.17687049312, 0.354444523498, 0.152161530302, 0.165931248849, -0.698843553991, 0.678919270898
1491754480.79, 0.398476968779, -1.17848618932, 0.354161282709, 0.152436852891, 0.166110191939, -0.698637978572, 0.679025319787
1491754480.8, 0.398696408787, -1.17997129446, 0.353902190011, 0.152792231133, 0.166351424822, -0.698507176282, 0.679020958622
1491754480.81, 0.398907550434, -1.18150199628, 0.35361264486, 0.153185396855, 0.16656959727, -0.698487160897, 0.678899469376
1491754480.82, 0.399112798585, -1.18292474964, 0.35335060307, 0.153658724114, 0.166783333679, -0.698507376227, 0.678719206644
1491754480.83, 0.399293698082, -1.18451899749, 0.353062791422, 0.154206985524, 0.166997142788, -0.698617974778, 0.678428393593
1491754480.84, 0.399450798627, -1.18604042505, 0.352789198284, 0.154770550249, 0.167300411769, -0.698828804529, 0.67800807588
1491754480.85, 0.399622435038, -1.1875208214, 0.35254773201, 0.155242902564, 0.167651450075, -0.69903836646, 0.677597221592
1491754480.86, 0.399822140801, -1.18923341903, 0.352313757631, 0.155651833707, 0.168005328762, -0.699170283588, 0.677279580911
1491754480.87, 0.399992071208, -1.19086428648, 0.352155072531, 0.155924941387, 0.168361834, -0.699235273954, 0.677061102977
1491754480.88, 0.400151844326, -1.19247063536, 0.352006073929, 0.156162464761, 0.168780760366, -0.699289085685, 0.676846448001
1491754480.89, 0.40030481036, -1.19422505231, 0.351866224354, 0.156400544877, 0.169217614502, -0.699314019111, 0.676656612455
1491754480.9, 0.400437983787, -1.19581915993, 0.351799041437, 0.156492423341, 0.169533468897, -0.699312337653, 0.676558037988
1491754480.91, 0.400540196294, -1.19762437859, 0.351733012547, 0.156603936327, 0.169839734521, -0.699407010386, 0.676357527886
1491754480.92, 0.400609471407, -1.1993101592, 0.351707931155, 0.156648699245, 0.170056311521, -0.699615760112, 0.676076788641
1491754480.93, 0.40064113515, -1.20090924314, 0.351723597942, 0.15669434112, 0.170178007458, -0.699882447139, 0.675759490814
1491754480.94, 0.40068110876, -1.2027175289, 0.351724130106, 0.156711977063, 0.170269407065, -0.700221821316, 0.675380697248
1491754480.95, 0.400695877971, -1.20441361535, 0.35178281439, 0.156652821092, 0.17027232847, -0.700601507023, 0.674999819377
1491754480.96, 0.40068117174, -1.20614173824, 0.35182643574, 0.156520722199, 0.170161380853, -0.701065853273, 0.674576190925
1491754480.97, 0.400627215093, -1.20774516628, 0.351864825177, 0.156380533099, 0.170024933268, -0.701580183504, 0.674108223544
1491754480.98, 0.400571661302, -1.20932990455, 0.351895416174, 0.156253963529, 0.169896640758, -0.702065553875, 0.673664447929
1491754480.99, 0.400489671047, -1.21112327173, 0.351901229897, 0.156221937861, 0.169831742355, -0.702625661269, 0.673104052541
1491754481.0, 0.400358148467, -1.21266959255, 0.351899054353, 0.156217887013, 0.169784861779, -0.70317444958, 0.672543504872
1491754481.01, 0.400210194042, -1.214217012, 0.351872945072, 0.156300715591, 0.169843163384, -0.703694035519, 0.671965840302
1491754481.02, 0.400064679798, -1.21593114483, 0.351800106197, 0.156386040691, 0.169917013192, -0.70431213442, 0.671279399515
1491754481.03, 0.399923627111, -1.21740277959, 0.351760719364, 0.156516782431, 0.170095095582, -0.70478011426, 0.670712416629
1491754481.04, 0.399784220817, -1.21898834393, 0.351700807505, 0.156571741982, 0.170263311046, -0.7052458328, 0.670167150674
1491754481.05, 0.399622196149, -1.22052668524, 0.351651830486, 0.156598667446, 0.17046117479, -0.705663306085, 0.669670921937
1491754481.06, 0.399448908083, -1.22207478222, 0.351590434339, 0.156620060604, 0.170775578294, -0.706041410077, 0.669187108163
1491754481.07, 0.399271291323, -1.22342899597, 0.351546086085, 0.156697586587, 0.17117689285, -0.706277568035, 0.668817115961
1491754481.08, 0.399117465181, -1.22487615167, 0.35146149796, 0.156876325014, 0.171735221805, -0.706428587976, 0.668472499309
1491754481.09, 0.398950038029, -1.22618488095, 0.351396640281, 0.157057666148, 0.172271120599, -0.706450430081, 0.6682689132
1491754481.1, 0.398800962583, -1.22769156724, 0.351299836654, 0.157304879034, 0.172873640138, -0.706475545471, 0.66802857965
1491754481.11, 0.398632521823, -1.22901013953, 0.351233498062, 0.157560162154, 0.173429431445, -0.706397248611, 0.667907145318
1491754481.12, 0.39845948282, -1.23028599768, 0.351161418505, 0.157835290603, 0.173928040705, -0.706278767199, 0.66783782515
1491754481.13, 0.398258096658, -1.23155386374, 0.351085556843, 0.158121685493, 0.174359557973, -0.706148695865, 0.667795100647
1491754481.14, 0.398029547413, -1.23273117164, 0.35100492201, 0.158460586956, 0.174792032818, -0.705999513891, 0.667759443236
1491754481.15, 0.397787496883, -1.23419276423, 0.350871538848, 0.158870114869, 0.175342728857, -0.705897820671, 0.667625254773
1491754481.16, 0.397548278413, -1.23515746827, 0.35083471732, 0.159147489483, 0.175623143838, -0.705853046667, 0.667532819007
1491754481.17, 0.397296508175, -1.23627672623, 0.350775363804, 0.159351594173, 0.175882325125, -0.705863660964, 0.667404651822
1491754481.18, 0.397035235567, -1.2375321191, 0.350697243432, 0.159502153793, 0.176191632105, -0.705878916698, 0.667270954465
1491754481.19, 0.396764003302, -1.23863773491, 0.35064184651, 0.15954681727, 0.176533681563, -0.70587346894, 0.667175627717
1491754481.2, 0.396502859391, -1.23973881524, 0.350598031581, 0.159540347311, 0.176988076404, -0.705845478305, 0.667086395565
1491754481.21, 0.396238530163, -1.24079991779, 0.350556675159, 0.159448006723, 0.177450516405, -0.705843986275, 0.666987192095
1491754481.22, 0.395973998717, -1.24175366869, 0.350544800154, 0.159321992186, 0.177877461716, -0.705866977581, 0.666879240478
1491754481.23, 0.395707485526, -1.24288383164, 0.350522014873, 0.15914458253, 0.178321499237, -0.70592991475, 0.666736379855
1491754481.24, 0.395421807374, -1.24382990488, 0.350533402873, 0.158930851893, 0.178643429892, -0.706046879284, 0.66657731249
1491754481.25, 0.395127633638, -1.24470945387, 0.350537523781, 0.158688359885, 0.178831021997, -0.706222088064, 0.666399153915
1491754481.26, 0.3948284899, -1.24567034852, 0.350535591178, 0.158432179621, 0.178933515108, -0.706498871574, 0.666139164211
1491754481.27, 0.3945238716, -1.24658298466, 0.350533357521, 0.158145109984, 0.178926310632, -0.706868584686, 0.66581701956
1491754481.28, 0.394239629087, -1.24755657842, 0.350527129825, 0.15785213843, 0.178790897592, -0.707321941032, 0.665441349081
1491754481.29, 0.393957157779, -1.24839124659, 0.350548037683, 0.157569394026, 0.178522257411, -0.707796843217, 0.665075423096
1491754481.3, 0.39367390119, -1.24924571521, 0.350566768429, 0.157312370712, 0.178198901381, -0.708279345806, 0.664709213018
1491754481.31, 0.39342392999, -1.25006141383, 0.350576855498, 0.157123507875, 0.177761275103, -0.708736501495, 0.664383702235
1491754481.32, 0.39318211348, -1.25082995257, 0.350574569543, 0.156991276161, 0.177253467425, -0.709189921675, 0.66406671539
1491754481.33, 0.392961129096, -1.25148141599, 0.350568328811, 0.156884703055, 0.176653560598, -0.709645394709, 0.663765111499
1491754481.34, 0.392398133624, -1.25212598796, 0.350760993524, 0.156314528095, 0.175843843109, -0.71044021777, 0.663264206875
1491754481.35, 0.392026205646, -1.25263135701, 0.350854040508, 0.15595401066, 0.175066095177, -0.711160536655, 0.66278269439
1491754481.36, 0.391771221948, -1.2530578313, 0.350912461188, 0.155851131157, 0.174396949717, -0.711794647343, 0.662302430057